"startDT [UTC]","vpos","CH4 [ppm]","stdev(CH4) [ppm]","CO2 [ppm]","stdev(CO2) [ppm]","H2O [ppm]","stdev(H2O)","p_LGR [torr]","T_LGR [C]","mt1_LGR [us]","mt2_LGR [us]","T_ECpre [C]","T_EC1 [C]","T_EC2 [C]","p_inlet [hPa]","p_in [hPa]","p_out [hPa]","T_inlet [C]","RH_inlet [%]","dwpt_inlet [C]","T_vent [C]","RH_vent [%]","dwpt_vent [C]","flow_vent [l min-1]","flow_inlet [l min-1]","dwpt_sample [C]","T_room [C]"
2012-02-23 00:00:00,0.0,1.9371,0.0009,403.34,0.30,-1.0,0.0,138.18,25.30,24.58,36.23,0.04,-272.73,-272.73,-45,550,-936,18.3,0.8,-41.2,18.7,0.8,-40.3,5.73,2.38,-36.0,24.6
2012-02-23 00:01:00,0.0,1.9376,0.0011,403.36,0.27,-1.0,0.0,138.18,25.30,24.58,36.23,0.04,-272.73,-272.73,-45,551,-936,18.3,0.8,-41.2,18.7,0.8,-40.4,5.73,2.50,-35.9,24.7
2012-02-23 00:02:00,0.0,1.9382,0.0012,403.42,0.25,-1.0,0.0,138.18,25.30,24.57,36.23,0.04,-272.73,-272.73,-45,551,-936,18.3,0.8,-41.1,18.7,0.8,-40.3,5.73,2.39,-35.9,24.6
2012-02-23 00:03:00,0.0,1.9366,0.0014,403.38,0.25,-1.0,0.0,138.19,25.30,24.58,36.23,0.04,-272.73,-272.73,-45,551,-936,18.3,0.8,-41.2,18.7,0.8,-40.3,5.73,2.48,-36.0,24.6
2012-02-23 00:04:00,0.0,1.9370,0.0015,403.30,0.30,-1.0,0.0,138.19,25.31,24.58,36.23,0.04,-272.74,-272.74,-45,551,-936,18.3,0.8,-41.0,18.7,0.8,-40.3,5.73,2.41,-36.0,24.7
2012-02-23 00:05:00,0.0,1.9396,0.0009,403.32,0.28,-1.0,0.0,138.19,25.31,24.58,36.23,0.04,-272.73,-272.74,-45,551,-936,18.2,0.8,-40.9,18.7,0.8,-40.3,5.73,2.46,-36.0,24.7
2012-02-23 00:06:00,0.0,1.9367,0.0013,403.36,0.23,-1.0,0.0,138.19,25.31,24.58,36.23,0.04,-272.73,-272.73,-45,551,-936,18.3,0.8,-40.8,18.7,0.9,-40.1,5.73,2.44,-36.0,24.6
2012-02-23 00:07:00,0.0,1.9350,0.0009,403.41,0.28,-1.0,0.0,138.19,25.31,24.58,36.23,0.04,-272.74,-272.74,-45,551,-936,18.3,0.8,-40.8,18.7,0.9,-40.0,5.73,2.44,-36.0,24.6
2012-02-23 00:08:00,0.0,1.9356,0.0010,403.34,0.27,-1.0,0.0,138.19,25.31,24.57,36.23,0.04,-272.74,-272.73,-45,551,-936,18.3,0.8,-40.9,18.7,0.9,-40.0,5.73,2.45,-36.0,24.6
2012-02-23 00:09:00,0.0,1.9364,0.0008,403.39,0.29,-1.0,0.0,138.19,25.31,24.57,36.23,0.04,-272.73,-272.73,-45,551,-936,18.3,0.8,-40.8,18.7,0.9,-40.1,5.73,2.42,-36.0,24.6
2012-02-23 00:10:00,0.0,1.9353,0.0009,403.45,0.27,-1.0,0.0,138.18,25.32,24.57,36.23,0.04,-272.73,-272.74,-45,551,-936,18.2,0.8,-40.9,18.7,0.9,-40.0,5.73,2.47,-36.0,24.6
2012-02-23 00:11:00,0.0,1.9371,0.0019,403.36,0.24,-1.0,0.0,138.18,25.32,24.58,36.23,0.04,-272.73,-272.73,-45,551,-936,18.3,0.8,-40.8,18.7,0.9,-40.0,5.73,2.40,-36.0,24.6
2012-02-23 00:12:00,0.0,1.9374,0.0015,403.41,0.24,-1.0,0.0,138.18,25.32,24.58,36.23,0.04,-272.73,-272.73,-45,551,-936,18.3,0.8,-40.8,18.7,0.9,-40.1,5.73,2.49,-36.0,24.6
2012-02-23 00:13:00,0.0,1.9361,0.0008,403.43,0.27,-1.0,0.0,138.18,25.32,24.58,36.23,0.04,-272.73,-272.73,-45,551,-936,18.3,0.8,-40.6,18.7,0.9,-40.0,5.73,2.39,-36.0,24.6
2012-02-23 00:14:00,0.0,1.9356,0.0008,403.34,0.23,-1.0,0.0,138.19,25.32,24.58,36.23,0.04,-272.73,-272.73,-45,551,-936,18.3,0.8,-40.5,18.7,0.9,-40.0,5.73,2.50,-36.0,24.6
2012-02-23 00:15:00,0.0,1.9351,0.0009,403.43,0.26,-1.0,0.0,138.19,25.32,24.58,36.23,0.04,-272.73,-272.73,-45,551,-936,18.3,0.8,-40.6,18.7,0.9,-40.1,5.73,2.38,-36.0,24.6
2012-02-23 00:16:00,0.0,1.9360,0.0010,403.33,0.28,-1.0,0.0,138.19,25.32,24.58,36.23,0.04,-272.73,-272.73,-45,551,-936,18.3,0.8,-40.9,18.7,0.9,-40.0,5.73,2.51,-36.0,24.6
2012-02-23 00:17:00,0.0,1.9363,0.0009,403.42,0.25,-1.0,0.0,138.19,25.32,24.58,36.22,0.04,-272.73,-272.73,-45,551,-936,18.3,0.8,-41.0,18.7,0.8,-40.2,5.73,2.37,-36.0,24.5
2012-02-23 00:18:00,0.0,1.9368,0.0009,403.34,0.24,-1.0,0.0,138.20,25.32,24.58,36.23,0.04,-272.73,-272.74,-45,551,-936,18.3,0.8,-41.1,18.7,0.8,-40.3,5.73,2.52,-36.0,24.5
2012-02-23 00:19:00,0.0,1.9366,0.0007,403.32,0.31,-1.0,0.0,138.19,25.32,24.58,36.23,0.04,-272.73,-272.73,-45,551,-936,18.3,0.8,-41.1,18.7,0.8,-40.6,5.73,2.36,-36.0,24.6
2012-02-23 00:20:00,0.0,1.9367,0.0012,403.30,0.25,-1.0,0.0,138.19,25.31,24.58,36.23,0.04,-272.73,-272.73,-45,551,-936,18.3,0.8,-41.1,18.7,0.8,-40.6,5.73,2.52,-36.0,24.6
2012-02-23 00:21:00,0.0,1.9374,0.0012,403.34,0.32,-1.0,0.0,138.19,25.31,24.58,36.23,0.04,-272.73,-272.74,-45,551,-936,18.3,0.8,-41.2,18.7,0.8,-40.7,5.73,2.37,-36.0,24.6
2012-02-23 00:22:00,0.0,1.9376,0.0011,403.33,0.30,-1.0,0.0,138.19,25.31,24.57,36.23,0.04,-272.74,-272.73,-45,551,-936,18.3,0.8,-41.4,18.7,0.8,-40.7,5.73,2.51,-35.9,24.6
2012-02-23 00:23:00,0.0,1.9415,0.0014,403.35,0.31,-1.0,0.0,138.19,25.32,24.58,36.23,0.04,-272.73,-272.73,-45,551,-936,18.3,0.8,-41.5,18.7,0.8,-40.7,5.73,2.38,-35.9,24.6
2012-02-23 00:24:00,0.0,1.9409,0.0016,403.32,0.29,-1.0,0.0,138.18,25.32,24.58,36.23,0.04,-272.74,-272.74,-45,551,-936,18.3,0.7,-41.6,18.7,0.8,-41.0,5.73,2.50,-35.9,24.6
2012-02-23 00:25:00,0.0,1.9402,0.0008,403.43,0.27,-1.0,0.0,138.18,25.32,24.58,36.22,0.04,-272.73,-272.74,-45,551,-936,18.3,0.7,-41.8,18.7,0.8,-41.0,5.73,2.38,-35.9,24.6
2012-02-23 00:26:00,0.0,1.9399,0.0008,403.39,0.30,-1.0,0.0,138.18,25.32,24.58,36.23,0.04,-272.73,-272.73,-46,551,-936,18.3,0.7,-41.8,18.7,0.8,-41.0,5.73,2.50,-35.9,24.7
2012-02-23 00:27:00,0.0,1.9394,0.0009,403.41,0.31,-1.0,0.0,138.18,25.33,24.58,36.23,0.04,-272.73,-272.73,-45,551,-936,18.3,0.7,-41.9,18.7,0.8,-41.0,5.73,2.40,-35.9,24.7
2012-02-23 00:28:00,0.0,1.9381,0.0014,403.37,0.33,-1.0,0.0,138.18,25.33,24.58,36.23,0.04,-272.73,-272.73,-45,551,-936,18.3,0.7,-41.8,18.7,0.8,-40.9,5.73,2.47,-35.9,24.6
2012-02-23 00:29:00,0.0,1.9368,0.0009,403.42,0.30,-1.0,0.0,138.18,25.33,24.58,36.23,0.04,-272.73,-272.73,-45,551,-936,18.3,0.7,-41.9,18.7,0.8,-40.9,5.73,2.43,-35.9,24.6
2012-02-23 00:30:00,0.0,1.9382,0.0009,403.35,0.34,-1.0,0.0,138.18,25.34,24.58,36.23,0.04,-272.73,-272.73,-45,551,-936,18.3,0.8,-41.5,18.7,0.8,-40.9,5.73,2.44,-35.9,24.6
2012-02-23 00:31:00,0.0,1.9380,0.0010,403.51,0.26,-1.0,0.0,138.18,25.34,24.58,36.22,0.04,-272.73,-272.74,-45,551,-936,18.4,0.8,-41.4,18.7,0.8,-40.6,5.73,2.46,-35.9,24.6
2012-02-23 00:32:00,0.0,1.9375,0.0007,403.56,0.26,-1.0,0.0,138.18,25.34,24.58,36.23,0.04,-272.73,-272.73,-45,551,-936,18.4,0.8,-41.4,18.7,0.8,-40.6,5.73,2.42,-35.9,24.6
2012-02-23 00:33:00,0.0,1.9387,0.0010,403.40,0.29,-1.0,0.0,138.18,25.35,24.58,36.23,0.04,-272.73,-272.73,-45,551,-936,18.4,0.8,-41.1,18.7,0.8,-40.6,5.73,2.48,-35.9,24.6
2012-02-23 00:34:00,0.0,1.9386,0.0008,403.51,0.30,-1.0,0.0,138.18,25.35,24.58,36.23,0.04,-272.73,-272.74,-45,551,-936,18.4,0.8,-41.1,18.7,0.8,-40.5,5.73,2.39,-35.9,24.6
2012-02-23 00:35:00,0.0,1.9375,0.0010,403.53,0.26,-1.0,0.0,138.18,25.35,24.58,36.23,0.04,-272.74,-272.73,-45,551,-936,18.4,0.8,-41.2,18.7,0.8,-40.3,5.73,2.49,-35.9,24.6
2012-02-23 00:36:00,0.0,1.9379,0.0008,403.49,0.26,-1.0,0.0,138.18,25.35,24.58,36.23,0.04,-272.73,-272.73,-45,551,-936,18.4,0.8,-41.1,18.7,0.8,-40.3,5.73,2.38,-35.9,24.6
2012-02-23 00:37:00,0.0,1.9423,0.0030,403.48,0.26,-1.0,0.0,138.18,25.35,24.58,36.23,0.04,-272.73,-272.73,-46,551,-936,18.4,0.8,-40.8,18.7,0.9,-40.1,5.73,2.51,-35.9,24.6
2012-02-23 00:38:00,0.0,1.9444,0.0012,403.30,0.22,-1.0,0.0,138.18,25.35,24.58,36.23,0.04,-272.73,-272.73,-45,551,-936,18.4,0.8,-40.7,18.7,0.9,-40.0,5.73,2.37,-35.9,24.7
2012-02-23 00:39:00,0.0,1.9421,0.0011,403.48,0.26,-1.0,0.0,138.18,25.35,24.58,36.23,0.04,-272.74,-272.73,-46,551,-936,18.4,0.8,-40.8,18.7,0.8,-40.3,5.73,2.52,-35.9,24.6
2012-02-23 00:40:00,0.0,1.9438,0.0010,403.36,0.26,-1.0,0.0,138.18,25.35,24.58,36.23,0.04,-272.73,-272.73,-45,551,-936,18.4,0.8,-41.1,18.7,0.8,-40.3,5.73,2.37,-35.9,24.7
2012-02-23 00:41:00,0.0,1.9427,0.0009,403.37,0.28,-1.0,0.0,138.18,25.35,24.58,36.23,0.04,-272.73,-272.73,-46,551,-936,18.4,0.8,-41.1,18.7,0.8,-40.3,5.73,2.51,-35.9,24.7
2012-02-23 00:42:00,0.0,1.9406,0.0009,403.34,0.27,-1.0,0.0,138.18,25.35,24.57,36.23,0.04,-272.73,-272.73,-45,551,-936,18.4,0.8,-41.1,18.7,0.8,-40.3,5.73,2.38,-35.9,24.6
2012-02-23 00:43:00,0.0,1.9419,0.0010,403.35,0.30,-1.0,0.0,138.19,25.35,24.58,36.23,0.04,-272.73,-272.73,-46,551,-936,18.4,0.8,-41.1,18.7,0.8,-40.3,5.73,2.49,-35.9,24.7
2012-02-23 00:44:00,0.0,1.9407,0.0014,403.39,0.27,-1.0,0.0,138.19,25.35,24.57,36.23,0.04,-272.74,-272.73,-45,551,-936,18.4,0.8,-41.1,18.7,0.8,-40.3,5.73,2.40,-35.9,24.7
2012-02-23 00:45:00,0.0,1.9383,0.0009,403.39,0.25,-1.0,0.0,138.19,25.35,24.58,36.24,0.04,-272.73,-272.74,-46,551,-936,18.4,0.8,-41.1,18.7,0.8,-40.3,5.73,2.47,-35.9,24.7
2012-02-23 00:46:00,0.0,1.9390,0.0013,403.46,0.31,-1.0,0.0,138.19,25.35,24.58,36.23,0.04,-272.73,-272.73,-45,552,-936,18.4,0.8,-41.1,18.7,0.8,-40.3,5.73,2.43,-35.9,24.7
2012-02-23 00:47:00,0.0,1.9413,0.0010,403.44,0.29,-1.0,0.0,138.20,25.35,24.58,36.23,0.04,-272.73,-272.73,-46,551,-936,18.4,0.8,-41.1,18.7,0.8,-40.3,5.73,2.43,-35.9,24.7
2012-02-23 00:48:00,0.0,1.9410,0.0012,403.35,0.30,-1.0,0.0,138.19,25.36,24.58,36.24,0.04,-272.73,-272.74,-45,552,-936,18.4,0.8,-41.1,18.7,0.8,-40.3,5.73,2.46,-35.9,24.7
2012-02-23 00:49:00,0.0,1.9414,0.0014,403.41,0.28,-1.0,0.0,138.19,25.36,24.58,36.23,0.04,-272.73,-272.73,-46,551,-936,18.4,0.8,-41.1,18.7,0.8,-40.3,5.73,2.40,-35.9,24.8
2012-02-23 00:50:00,0.0,1.9391,0.0010,403.47,0.26,-1.0,0.0,138.19,25.36,24.58,36.23,0.04,-272.74,-272.73,-45,552,-936,18.4,0.8,-41.1,18.7,0.8,-40.3,5.73,2.49,-35.9,24.8
2012-02-23 00:51:00,0.0,1.9408,0.0013,403.52,0.27,-1.0,0.0,138.19,25.36,24.57,36.23,0.04,-272.74,-272.74,-45,551,-936,18.4,0.8,-41.1,18.7,0.8,-40.3,5.73,2.38,-35.9,24.7
2012-02-23 00:52:00,0.0,1.9402,0.0012,403.49,0.23,-1.0,0.0,138.19,25.36,24.58,36.23,0.04,-272.73,-272.74,-46,551,-936,18.4,0.8,-41.1,18.7,0.8,-40.4,5.73,2.50,-35.9,24.8
2012-02-23 00:53:00,0.0,1.9401,0.0009,403.55,0.26,-1.0,0.0,138.19,25.36,24.58,36.22,0.04,-272.73,-272.73,-45,551,-936,18.4,0.8,-41.0,18.7,0.8,-40.5,5.73,2.37,-35.9,24.7
2012-02-23 00:54:00,0.0,1.9393,0.0009,403.39,0.25,-1.0,0.0,138.19,25.36,24.58,36.22,0.04,-272.73,-272.73,-46,552,-936,18.4,0.8,-41.0,18.7,0.8,-40.3,5.73,2.51,-35.9,24.7
2012-02-23 00:55:00,0.0,1.9400,0.0009,403.41,0.28,-1.0,0.0,138.19,25.36,24.57,36.22,0.04,-272.74,-272.74,-45,551,-936,18.4,0.8,-41.4,18.7,0.8,-40.6,5.73,2.37,-35.9,24.8
2012-02-23 00:56:00,0.0,1.9406,0.0011,403.42,0.32,-1.0,0.0,138.19,25.36,24.58,36.23,0.04,-272.73,-272.73,-46,551,-936,18.4,0.8,-41.3,18.8,0.8,-40.5,5.73,2.51,-35.9,24.7
2012-02-23 00:57:00,0.0,1.9420,0.0009,403.34,0.28,-1.0,0.0,138.19,25.36,24.58,36.23,0.04,-272.73,-272.74,-45,551,-936,18.4,0.8,-40.5,18.8,0.9,-39.7,5.73,2.37,-35.9,24.7
2012-02-23 00:58:00,0.0,1.9436,0.0008,403.33,0.29,-1.0,0.0,138.19,25.37,24.57,36.23,0.04,-272.73,-272.74,-46,552,-936,18.4,0.8,-41.2,18.8,0.8,-40.5,5.73,2.51,-35.9,24.8
2012-02-23 00:59:00,0.0,1.9431,0.0010,403.33,0.29,-1.0,0.0,138.19,25.37,24.57,36.23,0.04,-272.73,-272.73,-45,552,-936,18.4,0.8,-41.4,18.8,0.8,-40.6,5.73,2.38,-35.9,24.8
2012-02-23 01:00:00,0.0,1.9429,0.0008,403.41,0.23,-1.0,0.0,138.19,25.37,24.57,36.23,0.04,-272.73,-272.73,-46,552,-936,18.5,0.8,-41.4,18.8,0.8,-40.6,5.73,2.49,-35.9,24.8
2012-02-23 01:01:00,0.0,1.9424,0.0009,403.49,0.27,-1.0,0.0,138.19,25.37,24.58,36.23,0.04,-272.73,-272.74,-45,552,-936,18.5,0.8,-41.4,18.8,0.8,-40.6,5.73,2.40,-35.9,24.8
2012-02-23 01:02:00,0.0,1.9414,0.0010,403.39,0.29,-1.0,0.0,138.19,25.38,24.58,36.23,0.04,-272.74,-272.73,-46,552,-936,18.5,0.8,-41.4,18.8,0.8,-40.6,5.73,2.47,-35.8,24.8
2012-02-23 01:03:00,0.0,1.9400,0.0009,403.36,0.26,-1.0,0.0,138.18,25.38,24.58,36.23,0.04,-272.73,-272.73,-45,552,-936,18.4,0.8,-41.5,18.8,0.8,-40.5,5.73,2.42,-35.8,24.8
2012-02-23 01:04:00,0.0,1.9398,0.0009,403.44,0.27,-1.0,0.0,138.18,25.38,24.57,36.23,0.04,-272.73,-272.73,-46,552,-936,18.5,0.8,-41.4,18.8,0.8,-40.6,5.73,2.44,-35.8,24.8
2012-02-23 01:05:00,0.0,1.9393,0.0007,403.44,0.26,-1.0,0.0,138.18,25.39,24.57,36.23,0.04,-272.73,-272.73,-45,552,-936,18.5,0.8,-41.2,18.8,0.8,-40.6,5.73,2.46,-35.9,24.8
2012-02-23 01:06:00,0.0,1.9391,0.0010,403.52,0.25,-1.0,0.0,138.18,25.39,24.58,36.22,0.04,-272.73,-272.73,-46,552,-936,18.5,0.8,-41.1,18.8,0.8,-40.5,5.73,2.41,-35.9,24.7
2012-02-23 01:07:00,0.0,1.9403,0.0010,403.39,0.29,-1.0,0.0,138.18,25.39,24.57,36.23,0.04,-272.73,-272.73,-45,552,-936,18.5,0.8,-41.1,18.8,0.8,-40.5,5.73,2.49,-35.8,24.8
2012-02-23 01:08:00,0.0,1.9410,0.0008,403.52,0.31,-1.0,0.0,138.18,25.39,24.58,36.22,0.04,-272.73,-272.73,-46,552,-936,18.5,0.8,-41.1,18.8,0.8,-40.2,5.73,2.39,-35.9,24.8
2012-02-23 01:09:00,0.0,1.9417,0.0009,403.49,0.27,-1.0,0.0,138.18,25.39,24.58,36.23,0.04,-272.73,-272.73,-46,552,-936,18.5,0.8,-40.9,18.9,0.8,-40.2,5.73,2.51,-35.9,24.7
2012-02-23 01:10:00,0.0,1.9409,0.0011,403.51,0.22,-1.0,0.0,138.18,25.39,24.58,36.23,0.04,-272.73,-272.73,-46,552,-936,18.5,0.8,-40.6,18.8,0.9,-40.0,5.73,2.37,-35.8,24.7
2012-02-23 01:11:00,0.0,1.9418,0.0010,403.51,0.27,-1.0,0.0,138.18,25.39,24.58,36.22,0.04,-272.73,-272.73,-46,552,-936,18.5,0.8,-40.7,18.9,0.9,-40.0,5.73,2.52,-35.8,24.8
2012-02-23 01:12:00,0.0,1.9428,0.0009,403.41,0.25,-1.0,0.0,138.18,25.40,24.57,36.23,0.04,-272.73,-272.73,-45,552,-936,18.5,0.8,-40.7,18.9,0.9,-39.9,5.73,2.37,-35.9,24.7
2012-02-23 01:13:00,0.0,1.9437,0.0010,403.37,0.23,-1.0,0.0,138.18,25.40,24.58,36.23,0.04,-272.73,-272.73,-46,552,-937,18.5,1.0,-38.9,18.9,1.0,-38.2,5.73,2.51,-35.8,24.8
2012-02-23 01:14:00,0.0,1.9419,0.0011,403.44,0.26,-1.0,0.0,138.18,25.40,24.58,36.23,0.04,-272.73,-272.73,-45,552,-936,18.5,0.9,-40.1,18.9,0.9,-39.4,5.73,2.37,-35.8,24.8
2012-02-23 01:15:00,0.0,1.9418,0.0010,403.50,0.24,-1.0,0.0,138.18,25.40,24.58,36.23,0.04,-272.73,-272.74,-46,552,-936,18.5,0.8,-40.5,18.9,0.9,-39.8,5.73,2.50,-35.8,24.8
2012-02-23 01:16:00,0.0,1.9417,0.0009,403.44,0.25,-1.0,0.0,138.18,25.41,24.57,36.23,0.04,-272.73,-272.73,-45,552,-937,18.5,0.8,-40.6,18.9,0.9,-39.9,5.73,2.40,-35.8,24.8
2012-02-23 01:17:00,0.0,1.9407,0.0009,403.46,0.27,-1.0,0.0,138.18,25.41,24.58,36.23,0.04,-272.73,-272.73,-46,552,-936,18.5,0.8,-40.3,18.9,0.9,-39.8,5.73,2.46,-35.9,24.8
2012-02-23 01:18:00,0.0,1.9424,0.0013,403.37,0.28,-1.0,0.0,138.18,25.41,24.58,36.23,0.04,-272.74,-272.73,-45,552,-936,18.6,0.8,-40.3,18.9,0.9,-39.6,5.73,2.44,-35.8,24.8
2012-02-23 01:19:00,0.0,1.9449,0.0014,403.41,0.26,-1.0,0.0,138.18,25.41,24.58,36.23,0.04,-272.73,-272.73,-46,552,-936,18.6,0.8,-40.3,18.9,0.9,-39.5,5.73,2.42,-35.8,24.8
2012-02-23 01:20:00,0.0,1.9464,0.0009,403.37,0.24,-1.0,0.0,138.18,25.41,24.58,36.23,0.04,-272.73,-272.73,-45,552,-936,18.6,0.8,-40.4,18.9,0.9,-39.6,5.73,2.47,-35.8,24.8
2012-02-23 01:21:00,0.0,1.9467,0.0010,403.45,0.28,-1.0,0.0,138.18,25.41,24.57,36.23,0.04,-272.73,-272.73,-46,552,-937,18.6,0.9,-40.2,18.9,0.9,-39.6,5.73,2.38,-35.9,24.8
2012-02-23 01:22:00,0.0,1.9462,0.0010,403.40,0.31,-1.0,0.0,138.18,25.41,24.58,36.23,0.04,-272.74,-272.74,-45,553,-936,18.6,0.9,-40.0,19.0,0.9,-39.5,5.73,2.50,-35.9,24.8
2012-02-23 01:23:00,0.0,1.9461,0.0009,403.67,0.34,-1.0,0.0,138.18,25.42,24.58,36.23,0.04,-272.74,-272.73,-46,553,-937,18.7,0.9,-40.1,19.0,0.9,-39.5,5.73,2.37,-35.8,24.8
2012-02-23 01:24:00,0.0,1.9471,0.0010,403.75,0.31,-1.0,0.0,138.18,25.42,24.58,36.23,0.04,-272.73,-272.73,-45,553,-937,18.7,0.9,-40.1,19.0,0.9,-39.5,5.73,2.51,-35.8,24.9
2012-02-23 01:25:00,0.0,1.9473,0.0009,403.85,0.29,-1.0,0.0,138.18,25.42,24.58,36.23,0.04,-272.73,-272.74,-46,553,-936,18.7,0.8,-40.3,19.0,0.9,-39.5,5.73,2.37,-35.8,24.9
2012-02-23 01:26:00,0.0,1.9475,0.0008,403.92,0.24,-1.0,0.0,138.18,25.42,24.58,36.23,0.04,-272.73,-272.74,-45,553,-937,18.7,0.8,-40.3,19.1,0.9,-39.6,5.73,2.51,-35.7,25.0
2012-02-23 01:27:00,0.0,1.9471,0.0009,403.98,0.31,-1.0,0.0,138.18,25.43,24.58,36.24,0.04,-272.73,-272.73,-46,553,-937,18.7,0.8,-40.3,19.1,0.9,-39.5,5.73,2.38,-35.7,25.0
2012-02-23 01:28:00,0.0,1.9467,0.0010,404.15,0.26,-1.0,0.0,138.18,25.43,24.58,36.23,0.04,-272.73,-272.74,-46,553,-937,18.8,0.8,-40.2,19.1,0.9,-39.5,5.73,2.47,-35.7,25.0
2012-02-23 01:29:00,0.0,1.9479,0.0009,403.87,0.31,-1.0,0.0,138.18,25.44,24.57,36.23,0.04,-272.73,-272.73,-46,553,-937,18.8,0.8,-40.4,19.1,0.9,-39.7,5.73,2.42,-35.6,25.0
2012-02-23 01:30:00,0.0,1.9478,0.0010,403.95,0.27,-1.0,0.0,138.18,25.44,24.58,36.23,0.04,-272.73,-272.73,-46,553,-937,18.8,0.8,-40.6,19.1,0.9,-39.8,5.73,2.43,-35.6,25.1
2012-02-23 01:31:00,0.0,1.9469,0.0009,403.91,0.31,-1.0,0.0,138.18,25.44,24.58,36.23,0.04,-272.73,-272.73,-46,553,-937,18.8,0.8,-40.5,19.2,0.9,-39.8,5.73,2.47,-35.6,25.1
2012-02-23 01:32:00,0.0,1.9460,0.0010,403.75,0.26,-1.0,0.0,138.18,25.44,24.58,36.23,0.04,-272.73,-272.73,-46,553,-937,18.8,0.8,-40.5,19.2,0.9,-39.8,5.73,2.39,-35.6,25.1
2012-02-23 01:33:00,0.0,1.9453,0.0008,403.69,0.29,-1.0,0.0,138.18,25.45,24.58,36.23,0.04,-272.73,-272.73,-46,553,-937,18.8,0.8,-40.5,19.2,0.9,-39.8,5.73,2.50,-35.6,25.1
2012-02-23 01:34:00,0.0,1.9464,0.0008,403.56,0.27,-1.0,0.0,138.18,25.45,24.58,36.24,0.04,-272.73,-272.73,-46,553,-937,18.8,0.8,-40.5,19.2,0.9,-39.7,5.73,2.36,-35.6,25.1
2012-02-23 01:35:00,0.0,1.9466,0.0008,403.62,0.26,-1.0,0.0,138.18,25.45,24.58,36.23,0.04,-272.73,-272.73,-46,553,-937,18.9,0.8,-40.6,19.2,0.8,-39.9,5.73,2.50,-35.6,25.2
2012-02-23 01:36:00,0.0,1.9463,0.0011,403.54,0.27,-1.0,0.0,138.18,25.46,24.58,36.24,0.04,-272.73,-272.73,-46,553,-937,18.8,0.8,-40.7,19.2,0.8,-40.3,5.73,2.37,-35.6,25.2
2012-02-23 01:37:00,0.0,1.9444,0.0011,403.49,0.31,-1.0,0.0,138.18,25.46,24.57,36.24,0.04,-272.73,-272.73,-46,553,-937,18.8,0.8,-40.8,19.2,0.8,-40.3,5.73,2.49,-35.6,25.2
2012-02-23 01:38:00,0.0,1.9430,0.0009,403.46,0.33,-1.0,0.0,138.18,25.47,24.58,36.23,0.04,-272.73,-272.73,-46,553,-937,18.9,0.8,-40.8,19.2,0.8,-40.3,5.73,2.41,-35.6,25.2
2012-02-23 01:39:00,0.0,1.9421,0.0013,403.42,0.25,-1.0,0.0,138.18,25.47,24.58,36.24,0.04,-272.73,-272.74,-46,554,-937,18.9,0.8,-40.9,19.2,0.8,-40.4,5.73,2.43,-35.6,25.3
2012-02-23 01:40:00,0.0,1.9395,0.0010,403.43,0.26,-1.0,0.0,138.18,25.47,24.58,36.23,0.04,-272.73,-272.74,-46,554,-937,18.8,0.8,-40.9,19.2,0.8,-40.3,5.73,2.46,-35.6,25.4
2012-02-23 01:41:00,0.0,1.9397,0.0008,403.41,0.30,-1.0,0.0,138.17,25.48,24.58,36.23,0.04,-272.73,-272.73,-46,554,-937,18.8,0.8,-40.9,19.2,0.8,-40.4,5.73,2.39,-35.6,25.4
2012-02-23 01:42:00,0.0,1.9412,0.0011,403.49,0.32,-1.0,0.0,138.18,25.48,24.58,36.22,0.04,-272.73,-272.74,-46,554,-937,18.8,0.8,-40.8,19.2,0.8,-40.3,5.73,2.50,-35.6,25.4
2012-02-23 01:43:00,0.0,1.9400,0.0007,403.36,0.33,-1.0,0.0,138.18,25.49,24.58,36.23,0.04,-272.73,-272.73,-46,554,-937,18.8,0.8,-40.8,19.2,0.8,-40.2,5.73,2.36,-35.6,25.3
2012-02-23 01:44:00,0.0,1.9396,0.0009,403.29,0.35,-1.0,0.0,138.18,25.49,24.57,36.24,0.04,-272.73,-272.73,-46,554,-937,18.8,0.8,-40.7,19.2,0.8,-40.4,5.73,2.51,-35.6,25.3
2012-02-23 01:45:00,0.0,1.9402,0.0011,403.47,0.27,-1.0,0.0,138.18,25.49,24.58,36.23,0.04,-272.74,-272.74,-46,554,-937,18.9,0.8,-40.4,19.2,0.8,-40.2,5.73,2.37,-35.6,25.3
2012-02-23 01:46:00,0.0,1.9406,0.0010,403.48,0.27,-1.0,0.0,138.18,25.50,24.57,36.23,0.04,-272.73,-272.73,-46,554,-937,18.8,0.8,-40.6,19.2,0.8,-40.0,5.73,2.49,-35.6,25.3
2012-02-23 01:47:00,0.0,1.9433,0.0014,403.54,0.31,-1.0,0.0,138.18,25.50,24.58,36.23,0.04,-272.73,-272.73,-46,554,-937,18.9,0.8,-40.5,19.2,0.8,-40.0,5.73,2.40,-35.6,25.3
2012-02-23 01:48:00,0.0,1.9449,0.0008,403.57,0.32,-1.0,0.0,138.17,25.50,24.58,36.23,0.04,-272.73,-272.73,-46,554,-937,18.9,0.8,-40.6,19.2,0.8,-40.1,5.73,2.46,-35.6,25.2
2012-02-23 01:49:00,0.0,1.9447,0.0009,403.55,0.27,-1.0,0.0,138.17,25.51,24.58,36.24,0.04,-272.73,-272.74,-46,554,-937,18.9,0.8,-40.6,19.2,0.8,-40.0,5.73,2.44,-35.6,25.2
2012-02-23 01:50:00,0.0,1.9437,0.0010,403.65,0.26,-1.0,0.0,138.17,25.51,24.58,36.23,0.04,-272.74,-272.73,-46,554,-937,18.9,0.8,-40.5,19.3,0.8,-40.0,5.73,2.41,-35.6,25.2
2012-02-23 01:51:00,0.0,1.9427,0.0009,403.64,0.26,-1.0,0.0,138.17,25.52,24.58,36.23,0.04,-272.73,-272.74,-46,554,-937,18.9,0.8,-40.3,19.2,0.9,-39.7,5.73,2.48,-35.6,25.2
2012-02-23 01:52:00,0.0,1.9444,0.0011,403.61,0.31,-1.0,0.0,138.17,25.52,24.58,36.24,0.04,-272.73,-272.74,-46,554,-937,18.9,0.8,-40.2,19.3,0.9,-39.7,5.73,2.38,-35.6,25.2
2012-02-23 01:53:00,0.0,1.9457,0.0011,403.61,0.24,-1.0,0.0,138.18,25.52,24.58,36.23,0.04,-272.73,-272.74,-46,554,-937,18.9,0.8,-40.2,19.2,0.9,-39.7,5.73,2.51,-35.6,25.2
2012-02-23 01:54:00,0.0,1.9457,0.0009,403.64,0.26,-1.0,0.0,138.17,25.53,24.58,36.23,0.04,-272.73,-272.73,-46,554,-937,18.9,0.8,-40.2,19.2,0.9,-39.7,5.73,2.37,-35.6,25.2
2012-02-23 01:55:00,0.0,1.9451,0.0009,403.76,0.26,-1.0,0.0,138.17,25.53,24.58,36.23,0.04,-272.74,-272.74,-46,554,-937,18.9,0.8,-40.2,19.3,0.9,-39.7,5.73,2.51,-35.6,25.2
2012-02-23 01:56:00,0.0,1.9445,0.0009,403.72,0.23,-1.0,0.0,138.17,25.53,24.58,36.23,0.04,-272.73,-272.73,-46,554,-937,18.9,0.8,-40.2,19.2,0.9,-39.7,5.73,2.37,-35.6,25.2
2012-02-23 01:57:00,0.0,1.9444,0.0009,403.71,0.28,-1.0,0.0,138.17,25.54,24.58,36.23,0.04,-272.73,-272.73,-46,554,-937,18.9,0.8,-40.2,19.3,0.9,-39.7,5.73,2.49,-35.6,25.2
2012-02-23 01:58:00,0.0,1.9455,0.0009,403.78,0.30,-1.0,0.0,138.17,25.54,24.58,36.23,0.04,-272.73,-272.73,-46,554,-937,18.9,0.8,-40.2,19.2,0.9,-39.7,5.73,2.39,-35.6,25.2
2012-02-23 01:59:00,0.0,1.9463,0.0009,403.83,0.34,-1.0,0.0,138.17,25.55,24.58,36.23,0.04,-272.74,-272.73,-46,554,-937,18.9,0.8,-40.2,19.3,0.9,-39.6,5.73,2.46,-35.6,25.2
2012-02-23 02:00:00,1.0,1.9052,0.0290,388.13,10.95,-1.0,0.0,138.17,25.55,24.58,36.24,0.04,-272.73,-272.73,-46,544,-937,18.8,0.9,-39.9,19.3,0.9,-39.5,5.73,2.48,-35.6,25.2
2012-02-23 02:01:00,1.0,1.8714,0.0009,375.48,0.29,-1.0,0.0,138.17,25.55,24.58,36.25,0.04,-272.73,-272.73,-46,542,-937,18.9,0.9,-39.9,19.3,0.9,-39.4,5.73,2.42,-35.6,25.2
2012-02-23 02:02:00,1.0,1.8716,0.0007,375.61,0.27,-1.0,0.0,138.18,25.55,24.58,36.25,0.04,-272.74,-272.73,-46,542,-937,18.9,0.9,-39.9,19.3,0.9,-39.4,5.73,2.46,-35.6,25.1
2012-02-23 02:03:00,1.0,1.8719,0.0011,375.64,0.27,-1.0,0.0,138.17,25.56,24.58,36.24,0.04,-272.74,-272.74,-46,542,-937,18.9,0.9,-39.9,19.3,0.9,-39.5,5.73,2.39,-35.6,25.2
2012-02-23 02:04:00,1.0,1.8732,0.0009,375.55,0.28,-1.0,0.0,138.17,25.56,24.58,36.25,0.04,-272.73,-272.73,-46,542,-937,18.9,0.9,-39.8,19.3,0.9,-39.4,5.73,2.49,-35.6,25.2
2012-02-23 02:05:00,0.0,1.9142,0.0283,391.19,10.77,-1.0,0.0,138.18,25.56,24.58,36.23,0.04,-272.74,-272.73,-46,552,-937,19.0,0.9,-39.8,19.3,0.9,-39.4,5.73,2.37,-35.6,25.2
2012-02-23 02:06:00,0.0,1.9469,0.0010,403.65,0.28,-1.0,0.0,138.17,25.56,24.58,36.23,0.04,-272.73,-272.73,-47,552,-937,19.0,0.9,-39.6,19.3,0.9,-39.4,5.73,2.51,-35.6,25.2
2012-02-23 02:07:00,0.0,1.9459,0.0010,403.57,0.25,-1.0,0.0,138.17,25.56,24.57,36.24,0.04,-272.73,-272.73,-46,552,-937,19.0,0.9,-39.5,19.4,0.9,-39.3,5.73,2.37,-35.6,25.3
2012-02-23 02:08:00,0.0,1.9440,0.0010,403.64,0.27,-1.0,0.0,138.17,25.57,24.58,36.23,0.04,-272.73,-272.73,-47,552,-937,19.1,0.9,-39.5,19.4,0.9,-39.0,5.73,2.50,-35.6,25.3
2012-02-23 02:09:00,0.0,1.9431,0.0009,403.63,0.28,-1.0,0.0,138.17,25.57,24.58,36.24,0.04,-272.74,-272.74,-46,553,-937,19.1,0.9,-39.4,19.4,0.9,-39.1,5.73,2.38,-35.6,25.2
2012-02-23 02:10:00,0.0,1.9447,0.0010,403.65,0.30,-1.0,0.0,138.18,25.58,24.58,36.24,0.04,-272.73,-272.73,-47,553,-937,19.1,0.9,-39.4,19.4,0.9,-39.0,5.73,2.48,-35.6,25.3
2012-02-23 02:11:00,0.0,1.9459,0.0013,403.73,0.28,-1.0,0.0,138.17,25.58,24.57,36.23,0.04,-272.73,-272.73,-46,553,-937,19.1,0.9,-39.2,19.4,0.9,-39.0,5.73,2.42,-35.6,25.3
2012-02-23 02:12:00,0.0,1.9468,0.0009,403.75,0.30,-1.0,0.0,138.17,25.58,24.58,36.23,0.04,-272.73,-272.74,-47,553,-937,19.1,0.9,-39.1,19.4,0.9,-38.7,5.73,2.43,-35.6,25.3
2012-02-23 02:13:00,0.0,1.9458,0.0009,403.76,0.26,-1.0,0.0,138.17,25.59,24.58,36.23,0.04,-272.74,-272.73,-46,553,-937,19.1,0.9,-39.1,19.5,0.9,-38.7,5.73,2.47,-35.6,25.4
2012-02-23 02:14:00,0.0,1.9451,0.0010,403.76,0.24,-1.0,0.0,138.18,25.59,24.58,36.23,0.04,-272.73,-272.73,-47,553,-937,19.1,0.9,-39.1,19.4,0.9,-38.7,5.73,2.39,-35.6,25.4
2012-02-23 02:15:00,0.0,1.9452,0.0009,403.65,0.28,-1.0,0.0,138.17,25.59,24.58,36.24,0.04,-272.73,-272.73,-46,553,-937,19.1,0.9,-39.2,19.5,0.9,-38.7,5.73,2.50,-35.6,25.3
2012-02-23 02:16:00,0.0,1.9452,0.0010,403.73,0.30,-1.0,0.0,138.17,25.60,24.58,36.23,0.04,-272.73,-272.73,-47,553,-937,19.1,0.9,-39.1,19.5,0.9,-38.7,5.73,2.37,-35.6,25.3
2012-02-23 02:17:00,0.0,1.9455,0.0009,403.72,0.28,-1.0,0.0,138.17,25.60,24.58,36.23,0.04,-272.73,-272.73,-46,553,-937,19.1,0.9,-39.2,19.5,0.9,-38.7,5.73,2.51,-35.6,25.3
2012-02-23 02:18:00,0.0,1.9451,0.0009,403.71,0.26,-1.0,0.0,138.17,25.61,24.58,36.23,0.04,-272.73,-272.73,-47,553,-937,19.1,0.9,-39.1,19.5,0.9,-38.7,5.73,2.36,-35.6,25.2